Back to catalog

STARLINK-35573

AliveCommunicationsVLEO
NORAD 66116·PAYLOAD·🇺🇸 United States

Launched Oct 22, 2025 from Vandenberg Space Force Base

Loading…

Next Passes (next 24 hours)

TLE

FreshSource: CelesTrak SupGP

Epoch: Sep 14, 2026, 14:24 UTC

1 66116C 25237C   26257.60048611 -.00027024  00000+0 -79873-3 0  2577
2 66116  53.1571 239.1370 0001543 102.7470 348.5992 15.34391251    18

Track STARLINK-35573 in real time with AllMySat

Download on the App Store